Weather History for Savanna, IL

Change the Weather History Date:

Wednesday, May 28, 2014

  Actual Average (KCWI) Record (KCWI)
Temperature  
Mean Temperature 70 °F -  
Max Temperature 80 °F 77 °F 93 °F (1991)
Min Temperature 62 °F 54 °F 37 °F (1971)
Cooling Degree Days 6    
Growing Degree Days 20 (Base 50)    
Moisture  
Dew Point 61 °F    
Average Humidity 76    
Maximum Humidity 90    
Minimum Humidity 56    
Precipitation  
Precipitation 0.00 in - - ()
Sea Level Pressure  
Sea Level Pressure 29.97 in    
Wind  
Wind Speed 6 mph (ENE)    
Max Wind Speed 13 mph    
Max Gust Speed 18 mph    
Visibility 9 miles    
Events Rain    
Averages and records for this station are not official NWS values.
T = Trace of Precipitation, MM = Missing Value Source: NWS Daily Summary

Daily Weather History Graph

Daily Weather History Graph

Search for Another Location

Airport:

Trip Planner

Search our weather history database for the weather conditions in past years. The results will help you decide how hot, cold, wet, or windy it might be!

Date:

Astronomy

May. 28, 2014 Rise Set
Actual Time 5:29 AM CDT 8:26 PM CDT
Civil Twilight 4:56 AM CDT 8:59 PM CDT
Nautical Twilight 4:13 AM CDT 9:42 PM CDT
Astronomical Twilight 3:24 AM CDT 10:32 PM CDT
Moon 5:36 AM CDT (5/28) 8:24 PM CDT (5/28)
Length of Visible Light 16h 03m
Length of Day
14h 57m
Waning Crescent, 0% of the Moon is Illuminated
May 28
Waning Crescent
May 28
New
Jun 5
First Quarter
Jun 12
Full
Jun 19
Last Quarter

Hourly Weather History & Observations

Time (CDT) Temp. Dew Point Humidity Pressure Visibility Wind Dir Wind Speed Gust Speed Precip Events Conditions
12:15 AM 68.4 °F 61.3 °F 78% 29.92 in 10.0 mi East 5.8 mph - N/A   Clear
12:35 AM 68.0 °F 61.0 °F 78% 29.92 in 10.0 mi ESE 4.6 mph - N/A   Clear
12:55 AM 67.5 °F 61.5 °F 81% 29.92 in 10.0 mi ESE 4.6 mph - N/A   Scattered Clouds
1:15 AM 67.5 °F 61.3 °F 81% 29.92 in 10.0 mi Calm Calm - N/A   Mostly Cloudy
1:35 AM 67.1 °F 61.0 °F 81% 29.92 in 10.0 mi ESE 3.5 mph - N/A   Scattered Clouds
1:55 AM 66.2 °F 61.2 °F 84% 29.91 in 10.0 mi SE 3.5 mph - N/A   Clear
2:15 AM 66.6 °F 61.9 °F 85% 29.91 in 10.0 mi ESE 3.5 mph - N/A   Scattered Clouds
2:35 AM 67.1 °F 62.1 °F 84% 29.91 in 10.0 mi Calm Calm - N/A   Scattered Clouds
2:55 AM 66.7 °F 62.8 °F 87% 29.91 in 10.0 mi Calm Calm - N/A   Scattered Clouds
3:15 AM 67.1 °F 62.6 °F 85% 29.91 in 10.0 mi Calm Calm - N/A   Mostly Cloudy
3:35 AM 66.2 °F 62.6 °F 88% 29.91 in 10.0 mi Calm Calm - N/A   Overcast
3:55 AM 66.2 °F 62.6 °F 88% 29.91 in 10.0 mi Calm Calm - N/A   Overcast
4:15 AM 66.2 °F 62.8 °F 89% 29.92 in 10.0 mi NE 3.5 mph - N/A   Overcast
4:35 AM 65.8 °F 62.8 °F 90% 29.91 in 10.0 mi NE 5.8 mph - N/A   Overcast
4:55 AM 65.7 °F 62.8 °F 90% 29.92 in 10.0 mi NE 4.6 mph - N/A   Overcast
5:15 AM 65.7 °F 62.8 °F 90% 29.92 in 10.0 mi NE 4.6 mph - N/A   Overcast
5:35 AM 65.7 °F 62.8 °F 90% 29.93 in 10.0 mi NE 5.8 mph - N/A   Overcast
5:55 AM 65.7 °F 62.8 °F 90% 29.94 in 7.0 mi NE 4.6 mph - N/A   Mostly Cloudy
6:15 AM 65.7 °F 62.8 °F 90% 29.94 in 7.0 mi NNE 5.8 mph - N/A   Scattered Clouds
6:35 AM 65.7 °F 62.8 °F 90% 29.94 in 7.0 mi NE 6.9 mph - N/A   Scattered Clouds
6:55 AM 65.7 °F 62.8 °F 90% 29.95 in 4.0 mi NE 6.9 mph - N/A   Scattered Clouds
7:15 AM 65.8 °F 62.8 °F 90% 29.96 in 4.0 mi ENE 6.9 mph - N/A   Mostly Cloudy
7:35 AM 66.2 °F 63.0 °F 89% 29.96 in 4.0 mi NE 12.7 mph 17.3 mph N/A   Overcast
7:55 AM 66.2 °F 63.0 °F 89% 29.96 in 4.0 mi ENE 9.2 mph 18.4 mph N/A   Overcast
8:15 AM 66.7 °F 63.1 °F 88% 29.97 in 4.0 mi NE 12.7 mph - N/A   Overcast
8:35 AM 64.6 °F 61.3 °F 89% 29.98 in 2.5 mi NE 10.4 mph - N/A   Overcast
8:55 AM 64.2 °F 59.2 °F 84% 29.99 in 5.0 mi ENE 10.4 mph - N/A   Haze
9:15 AM 64.0 °F 58.3 °F 82% 29.99 in 10.0 mi ENE 10.4 mph - N/A   Overcast
9:35 AM 63.9 °F 58.1 °F 81% 30.00 in 7.0 mi NE 8.1 mph - N/A Rain Light Rain
9:55 AM 64.6 °F 58.3 °F 80% 29.99 in 10.0 mi NE 8.1 mph - N/A   Overcast
10:15 AM 65.5 °F 59.0 °F 80% 30.00 in 10.0 mi NE 6.9 mph - N/A   Overcast
10:35 AM 66.6 °F 59.5 °F 78% 30.00 in 10.0 mi ENE 6.9 mph - N/A   Overcast
10:55 AM 68.4 °F 61.0 °F 77% 30.01 in 10.0 mi ENE 9.2 mph - N/A   Overcast
11:15 AM 69.8 °F 61.7 °F 75% 30.00 in 10.0 mi ENE 8.1 mph - N/A   Scattered Clouds
11:55 AM 70.9 °F 62.1 °F 74% 30.01 in 10.0 mi ENE 6.9 mph - N/A   Scattered Clouds
12:15 PM 70.9 °F 62.2 °F 74% 30.00 in 10.0 mi ENE 8.1 mph - N/A   Scattered Clouds
12:35 PM 71.8 °F 62.2 °F 72% 30.00 in 10.0 mi NE 8.1 mph - N/A   Mostly Cloudy
1:15 PM 74.3 °F 63.7 °F 69% 29.99 in 10.0 mi NNE 6.9 mph - N/A   Scattered Clouds
1:35 PM 75.2 °F 63.7 °F 67% 29.99 in 10.0 mi NNE 6.9 mph - N/A   Scattered Clouds
1:55 PM 76.3 °F 64.0 °F 66% 29.99 in 10.0 mi ENE 6.9 mph - N/A   Clear
2:15 PM 75.9 °F 63.7 °F 66% 29.98 in 10.0 mi NNE 9.2 mph - N/A   Mostly Cloudy
2:35 PM 76.5 °F 63.3 °F 64% 29.98 in 10.0 mi NNE 12.7 mph - N/A   Overcast
2:55 PM 78.3 °F 63.9 °F 61% 29.97 in 10.0 mi NE 10.4 mph - N/A   Overcast
3:15 PM 78.1 °F 63.3 °F 60% 29.98 in 10.0 mi NNE 8.1 mph - N/A   Overcast
3:35 PM 78.8 °F 63.7 °F 60% 29.97 in 10.0 mi NE 9.2 mph - N/A   Overcast
4:15 PM 79.2 °F 63.5 °F 59% 29.97 in 10.0 mi NNE 9.2 mph - N/A   Clear
4:35 PM 78.8 °F 62.8 °F 58% 29.96 in 10.0 mi North 12.7 mph - N/A   Clear
4:55 PM 79.3 °F 63.1 °F 57% 29.98 in 10.0 mi NNE 11.5 mph - N/A   Clear
5:15 PM 79.0 °F 62.2 °F 56% 29.98 in 10.0 mi NNE 12.7 mph - N/A   Scattered Clouds
5:35 PM 76.3 °F 62.6 °F 62% 29.99 in 10.0 mi SE 6.9 mph - N/A   Mostly Cloudy
5:55 PM 74.1 °F 63.5 °F 69% 29.99 in 10.0 mi ESE 3.5 mph - N/A   Overcast
6:15 PM 73.4 °F 63.7 °F 71% 29.99 in 10.0 mi SE 6.9 mph - N/A   Overcast
6:35 PM 71.1 °F 62.8 °F 75% 29.99 in 10.0 mi East 10.4 mph - N/A   Overcast
6:55 PM 70.0 °F 63.1 °F 79% 29.99 in 10.0 mi ESE 8.1 mph - N/A   Overcast
7:15 PM 70.9 °F 61.2 °F 71% 29.99 in 10.0 mi ESE 6.9 mph - N/A   Overcast
7:35 PM 70.9 °F 62.4 °F 75% 29.99 in 10.0 mi East 4.6 mph - N/A   Mostly Cloudy
7:55 PM 71.2 °F 63.1 °F 75% 29.99 in 10.0 mi NNE 5.8 mph - N/A   Overcast
8:15 PM 70.0 °F 63.1 °F 79% 30.00 in 10.0 mi NE 4.6 mph - N/A   Scattered Clouds
8:35 PM 69.4 °F 62.1 °F 77% 30.01 in 10.0 mi NE 5.8 mph - N/A   Mostly Cloudy
8:55 PM 69.3 °F 58.6 °F 69% 30.02 in 10.0 mi ENE 8.1 mph - N/A   Scattered Clouds
9:35 PM 67.6 °F 54.5 °F 63% 30.04 in 10.0 mi NE 4.6 mph - N/A   Clear
9:55 PM 66.4 °F 54.5 °F 66% 30.04 in 10.0 mi NE 4.6 mph - N/A   Clear
10:15 PM 66.2 °F 54.7 °F 66% 30.04 in 10.0 mi NE 6.9 mph - N/A   Clear
10:35 PM 65.7 °F 54.5 °F 67% 30.04 in 10.0 mi NE 6.9 mph - N/A   Clear
10:55 PM 64.8 °F 54.3 °F 69% 30.04 in 10.0 mi ENE 10.4 mph - N/A   Clear
11:15 PM 63.5 °F 54.1 °F 72% 30.05 in 10.0 mi ENE 8.1 mph - N/A   Clear
11:35 PM 62.6 °F 53.1 °F 71% 30.05 in 10.0 mi ENE 8.1 mph - N/A   Clear
11:55 PM 62.1 °F 52.0 °F 70% 30.05 in 10.0 mi ENE 8.1 mph - N/A   Scattered Clouds